DECAYED

IRIDIUM 33 DEB, 33874 (Decayed)

Orbit data source: Space-Track

IRIDIUM 33 DEB, 33874 was space debris in LEO originally from a launch on Sun, 14 Sep 1997 UTC launched from the Tyuratam Missile And Space Complex (TTMTR). The debris from Iridium 33, an American commercial communications satellite, has been tracked extensively since its accidental collision with the defunct Russian satellite Cosmos 2251 in 2009. This event, occurring at high speed in low Earth orbit (LEO), generated thousands of pieces of space debris, significantly increasing the risk of further collisions. The Iridium 33 debris cloud has impacted space traffic management and orbital debris mitigation strategies, making it a subject of ongoing study in space situational awareness.

Not visible in the next 10 days
Identifier
33874, 1997-051AT
Orbit
Decayed
Country
Flag of USUS
Related business
Manufacturer
Unknown
Mission
Decayed spacecraft
Bus & Motor
Unknown
Mass
Unknown
Launch date (UTC)
1997-09-14 (28 years ago)
Launch vehicle
Unknown
Launch site
Tyuratam Missile And Space Complex (TTMTR)
Object type
Payload
Rocket body
Debris
Shape & HBR
Unknown shape, 0.1 m
Radar Cross Section
Medium (>0.1 m² and <1 m²)

Expand to show TLE details & history
Last TLE update: 5 months ago

TLE from 5 months ago
0 IRIDIUM 33 DEB
1 33874U 97051AT  25212.02498284  .05693054  58204-1  19146-1 0  9990
2 33874  86.1600  60.1308 0017276 266.4592  93.4716 15.95431773860596
Epoch: 2025-07-31T00:35Z
TLE epoch observation values (Epoch: 2025-07-31T00:35:58.517Z)
Latitude
0.00001°
Longitude
102.24119°
Altitude
291.101 km
Speed
7.732 km/s
True Right ascension
04h 00m 31s
True Declination
0° 00' 00"
Sunlit
Object was in daylight at epoch
Visualization orbit readout
Latitude
Unknown
Longitude
Unknown
Altitude
Unknown
Speed
Unknown
Apparent Right ascension
Unknown
Apparent Declination
Unknown
Sunlit
N/A
Visualization observer readout
Local Sidereal Time
00:32:37
Azimuth
Unknown
Elevation
Unknown
Doppler factor
Unknown
Orbital elements
Apogee altitude
295.367 km
Perigee altitude
272.348 km
Semi-major axis
6,661.994 km
Eccentricity
0.00173
Inclination
86.16°
RAAN
60.1308°
Arg. of periapsis
266.4592°
True anomaly
93.66918°
Mean anomaly
93.4716°
Eccentric anomaly
93.57039°
Mean motion
3.99151 °/min
Orbital period
90.19 mins
BSTAR
0.019146
Loading maneuver chart data...
Computing Atmospheric mass density...

Documentation

Showing up to 5 results
|